Location: Rancho Del Sol Observatory
(38.7214°N, 120.6350°W)
Time: 20:47:05
(UTC-08:00)

A-11 Canister half - Pass Details

Date: 29 January 2020
Orbit: 1517 x 1683 km, 47.2° (Epoch: 18 February)

Event Time Altitude Azimuth Distance (km) Brightness Sun altitude
Rises 05:20:26 0° 299° (WNW) 4,665 - -21.7°
Reaches altitude 10° 05:23:33 10° 295° (WNW) 3,679 - -21.1°
Exits shadow 05:27:46 30° 282° (WNW) 2,478 9.5 -20.3°
Maximum altitude 05:32:23 52° 223° (SW) 1,828 9.1 -19.4°
Drops below altitude 10° 05:41:20 10° 150° (SSE) 3,719 11.5 -17.7°
Sets 05:44:31 0° 145° (SE) 4,720 12.3 -17.1°
